RH
64 59 51 48 46 49 50 41 38 34 30 22 24 26 29 31 40 36 76 76 69 72 70 73 86 87 87 86 85 86 85 83 81 78 75 73 72 72 70 69 67 65 65 69 70 67 70 69 60
66 49 50 53 50 51 45 44 40 36 27 27 26 31 39 36 58 83 82 79 71 74 70 70 89 88 88 88 87 86 83 79 77 75 73 70 70 72 67 67 71 64 63 68 71 73 74 65 59
61 48 51 55 56 50 45 39 35 32 29 26 25 27 30 39 60 73 72 76 71 76 71 75 90 89 88 88 87 86 84 81 77 74 71 70 69 66 57 69 75 70 71 73 80 75 69 62 64
62 56 51 58 64 51 37 30 34 32 27 26 26 25 35 49 59 66 78 74 75 79 71 87 90 88 89 89 88 86 82 77 75 76 69 66 67 62 60 78 78 78 78 79 75 71 66 65 68
61 60 64 72 59 52 43 35 35 35 32 29 26 23 30 57 79 82 82 78 78 81 74 76 90 90 90 89 88 86 83 79 76 72 68 65 64 61 66 78 79 79 78 75 72 72 70 68 72
67 61 70 66 65 49 44 37 34 34 32 28 24 28 40 83 85 84 76 79 73 83 79 75 90 91 90 89 88 87 85 84 78 74 69 69 66 66 65 76 75 74 74 74 74 73 72 72 71
71 74 66 60 50 51 44 38 37 35 31 28 25 33 42 79 81 77 75 72 77 80 80 78 74 82 93 91 90 89 87 86 83 80 76 74 75 70 70 75 76 75 73 74 74 74 70 72 71
67 68 73 63 52 46 38 37 31 33 29 23 28 29 32 59 81 81 80 77 84 85 79 79 77 74 74 74 90 88 88 88 87 84 84 82 79 77 74 80 79 74 74 74 74 70 71 74 75
59 74 74 57 56 43 36 34 29 28 25 25 27 33 50 77 86 92 93 90 89 90 85 82 80 78 77 75 79 86 87 89 90 84 88 81 61 61 63 77 81 79 77 73 71 72 79 84 79
65 75 68 54 48 42 39 37 38 35 35 30 31 44 81 81 89 87 88 88 90 89 88 82 84 81 80 76 75 77 72 67 65 77 67 63 63 63 66 76 85 82 81 80 75 78 85 77 52
70 67 54 54 45 43 47 46 41 40 41 33 32 42 86 86 88 83 83 79 82 80 82 78 82 81 78 75 77 75 73 72 70 72 68 66 67 68 67 69 70 72 84 71 74 76 68 67 46
78 67 55 48 51 51 52 45 47 45 38 36 42 40 72 85 88 83 82 77 78 77 77 76 78 86 80 75 75 74 73 76 75 74 70 70 71 74 73 70 77 77 75 77 77 70 60 68 40
76 65 57 52 51 51 49 51 48 48 42 42 42 40 46 78 84 82 77 73 75 76 75 74 78 86 80 81 76 75 72 74 73 75 72 69 71 73 73 71 74 76 76 73 75 65 48 52 33
65 65 58 54 51 51 53 52 52 45 42 42 45 43 41 41 53 62 74 82 81 77 76 75 79 86 86 83 79 75 72 72 76 76 74 73 68 69 74 73 74 75 73 72 71 59 40 39 30
62 76 64 54 55 54 52 59 59 44 44 44 45 44 45 42 39 38 50 67 80 80 80 77 80 85 86 84 84 83 77 74 74 75 74 73 72 72 73 72 75 73 72 72 72 47 35 32 28
72 68 87 62 54 53 47 51 46 45 45 45 43 39 45 41 37 34 35 38 55 79 83 80 81 88 88 86 90 87 81 71 72 72 73 75 74 74 75 75 73 73 72 71 68 50 37 34 32
82 83 85 68 53 49 55 62 47 45 50 48 47 44 44 41 39 36 36 36 34 42 73 83 84 85 88 88 89 89 86 75 72 72 72 74 73 75 74 74 73 73 74 72 64 50 41 40 36
79 82 84 72 60 55 66 67 57 47 46 46 44 43 46 43 38 33 37 37 33 36 42 72 82 83 86 89 91 94 93 84 77 71 72 73 72 74 75 75 73 75 74 71 60 52 41 38 36
68 71 81 69 51 57 66 61 52 44 43 47 46 44 43 45 37 36 37 36 37 38 39 41 76 84 89 93 93 97 96 94 91 84 76 75 72 75 75 74 73 75 75 69 58 48 43 39 33
71 73 78 61 52 54 58 56 48 44 43 40 38 37 37 38 39 37 36 37 36 35 40 42 48 69 84 79 82 87 89 92 92 91 82 76 74 77 78 75 75 73 73 68 57 46 44 39 37
70 71 77 68 58 54 55 54 49 38 39 37 36 37 36 37 37 35 34 36 42 40 37 39 42 50 78 82 82 87 93 95 97 96 90 80 76 78 77 76 73 74 72 71 61 52 54 56 44
99 62 61 65 68 72 58 62 52 39 36 48 51 50 47 42 38 38 38 38 40 40 42 42 42 44 64 82 85 81 84 87 86 85 87 89 79 79 78 78 78 76 75 73 69 61 59 66 64
95 68 62 65 72 68 64 67 52 39 46 54 56 60 60 60 59 56 54 52 50 51 46 42 40 41 43 70 84 80 82 84 84 85 86 91 88 80 81 79 81 78 78 76 72 66 67 62 67
86 87 87 70 71 85 65 62 48 43 41 53 56 58 60 60 60 61 62 64 64 66 64 58 47 44 45 50 76 85 83 84 92 96 96 96 94 90 86 84 82 80 77 78 73 70 66 65 66
91 98 97 96 92 79 69 68 49 43 42 51 55 55 57 61 63 65 67 68 67 68 68 62 62 58 53 51 60 80 85 87 92 90 93 97 96 96 93 88 85 82 79 77 74 76 75 73 71
95 77 83 84 84 71 70 69 49 52 52 51 51 51 55 60 65 68 70 70 68 70 69 66 65 63 60 59 56 60 78 85 90 89 91 91 91 91 87 88 84 80 78 78 77 81 79 78 80
87 86 60 89 83 79 73 62 52 51 46 45 47 49 54 60 66 71 71 68 71 68 63 65 63 62 65 66 65 64 71 81 88 90 88 88 87 89 88 86 87 84 81 79 78 79 72 63 62
70 64 84 89 84 70 67 64 59 63 51 48 49 50 50 54 68 74 72 72 72 61 59 58 59 62 65 70 68 66 70 76 85 92 91 89 88 86 88 87 86 84 79 76 76 72 54 48 50
76 84 80 74 76 71 67 50 48 54 48 53 48 49 52 52 72 77 70 78 65 57 59 60 61 66 72 77 71 74 76 86 91 91 90 89 86 86 86 84 80 76 70 63 56 50 45 44 46
70 75 72 86 88 91 84 56 47 51 51 49 48 49 51 55 77 76 76 73 64 61 64 64 64 67 79 85 80 84 90 89 91 90 87 82 83 80 77 72 65 56 48 45 40 42 42 45 52
Wind_Speed
1 3 2 3 1 2 3 5 1 2 3 3 3 4 3 3 4 3 2 8 10 17 16 17 16 14 15 15 15 15 17 17 15 13 12 12 11 10 9 8 9 8 8 9 12 13 14 12 11
2 2 3 3 3 4 5 4 8 8 3 8 3 2 4 2 1 2 7 6 13 15 15 15 15 14 13 14 15 16 17 16 15 14 12 9 9 11 9 7 8 10 9 9 13 15 15 12 12
3 2 3 4 4 10 5 6 9 3 5 2 3 1 2 2 1 6 1 13 16 14 15 14 15 15 14 16 16 16 15 15 14 13 11 9 7 7 7 5 13 11 9 10 13 15 14 11 12
2 1 3 4 9 7 7 3 5 2 1 1 3 4 3 1 1 3 10 13 15 14 14 14 14 15 16 15 16 16 15 15 14 12 12 9 7 9 9 12 14 13 11 13 14 14 13 11 10
2 1 3 4 11 4 5 2 3 1 2 2 3 4 4 3 3 9 14 13 15 11 12 14 13 14 15 16 15 14 14 15 14 13 11 9 9 11 10 12 13 14 13 13 13 12 11 10 9
2 1 4 12 10 8 4 6 3 3 2 3 2 2 3 2 6 11 14 14 13 13 12 13 12 13 13 14 14 13 13 14 15 13 11 10 10 10 10 9 9 11 10 11 10 9 10 9 8
4 4 7 4 18 8 7 7 7 5 3 6 1 2 1 3 6 10 13 15 12 12 12 11 12 11 11 12 10 10 11 14 14 13 12 9 10 10 10 8 8 9 9 9 9 9 9 8 8
4 3 6 6 9 11 7 7 4 12 15 1 4 5 3 2 10 8 10 12 10 12 12 11 10 9 10 11 11 9 8 10 12 12 12 9 9 9 9 8 7 8 8 8 8 8 8 9 7
3 2 8 12 9 4 5 7 4 2 4 3 6 2 1 8 13 10 8 8 9 9 12 10 10 9 9 9 9 9 9 7 9 10 10 11 7 8 9 7 7 7 7 7 8 8 10 10 9
5 6 10 4 5 4 7 5 6 5 3 4 2 1 3 13 13 15 14 12 12 13 13 10 9 10 9 6 8 8 8 7 7 8 10 7 8 7 7 6 7 8 7 6 7 9 10 6 4
6 9 5 3 4 4 5 4 2 5 3 4 4 2 5 11 11 12 10 11 11 11 9 10 11 9 10 8 6 4 4 5 5 9 9 7 6 6 5 4 4 5 5 4 4 6 4 5 4
4 7 4 5 4 4 5 2 1 3 3 5 3 1 6 10 10 10 10 12 12 12 12 11 12 10 10 7 7 7 6 6 6 7 10 7 5 6 5 5 5 5 4 5 5 3 4 5 5
10 2 9 9 2 3 4 3 4 5 7 3 3 1 4 10 6 4 8 10 11 13 12 13 11 11 10 10 7 7 8 8 8 8 9 8 7 7 6 6 5 5 4 5 5 5 4 5 6
6 13 7 6 13 3 4 4 5 5 6 8 3 6 5 4 9 9 9 11 12 12 12 11 11 10 11 10 11 8 8 8 7 7 9 11 8 8 7 6 6 5 5 5 5 5 5 5 5
2 7 13 15 3 4 6 8 14 6 3 5 6 5 6 7 5 9 11 13 14 13 12 13 11 10 13 13 11 8 8 8 9 9 11 12 10 10 9 7 7 6 6 6 5 5 4 5 4
14 3 6 8 12 5 7 12 3 11 10 13 10 9 8 10 9 9 10 8 8 11 15 14 11 12 14 13 9 8 9 9 9 9 9 13 13 12 9 7 7 7 6 6 6 6 5 4 4
12 8 7 3 13 10 11 2 6 3 6 8 8 8 9 10 8 12 10 8 8 9 11 14 15 16 16 13 9 11 11 10 9 9 10 13 13 13 11 9 8 9 7 7 7 4 5 5 4
20 14 6 10 4 12 9 8 5 3 4 8 8 8 8 11 14 11 7 8 10 9 10 11 12 15 15 9 8 6 7 9 9 10 10 13 12 14 12 10 10 9 8 7 7 7 4 3 5
12 8 5 8 3 5 9 4 7 9 4 7 9 10 11 12 13 11 8 8 8 8 9 12 12 15 10 8 8 8 10 9 9 9 13 14 13 15 14 10 11 10 10 10 11 6 7 3 5
14 13 5 2 3 3 3 6 10 9 8 10 13 13 13 5 5 8 7 6 8 9 8 8 11 11 13 11 10 7 8 8 8 7 11 13 15 14 13 14 12 13 9 11 12 9 5 3 7
9 16 7 5 4 3 2 5 4 1 2 3 4 6 5 7 10 8 7 6 6 8 9 9 10 11 13 14 9 7 2 1 4 7 10 13 16 15 15 15 13 13 10 10 12 11 11 6 5
6 5 9 9 4 3 2 3 2 2 5 6 6 6 4 5 3 2 3 3 4 7 5 7 7 8 10 14 12 16 11 11 9 10 10 10 15 15 16 15 14 13 10 11 11 10 9 7 7
4 2 8 4 4 2 1 2 4 1 5 4 6 6 6 5 5 7 7 6 6 5 2 3 5 6 7 9 13 12 15 9 7 8 12 11 11 14 15 14 14 13 10 11 13 12 11 8 7
10 12 11 5 2 1 1 2 2 3 3 1 2 4 4 5 5 5 4 4 5 6 7 5 4 2 3 5 9 15 14 14 9 7 9 7 7 8 12 13 12 12 12 13 13 13 14 10 6
4 5 3 3 1 3 1 3 4 1 1 4 4 3 4 4 4 4 6 7 7 8 7 5 7 5 6 4 4 10 15 15 14 13 9 7 6 6 12 14 13 11 12 12 12 12 12 11 8
5 3 4 6 5 3 1 5 1 2 1 3 1 1 2 4 4 5 6 6 6 7 7 8 7 7 7 5 4 4 8 9 9 11 9 8 9 9 10 11 11 12 12 11 11 7 7 7 5
3 1 3 8 3 2 3 3 3 1 3 2 3 2 5 5 5 6 7 8 8 9 10 10 10 8 6 7 6 6 5 7 11 10 9 7 7 5 8 10 10 10 11 11 11 8 8 8 6
2 6 4 4 4 3 2 4 4 5 5 3 2 5 4 4 5 5 5 6 6 8 8 9 9 10 10 8 7 7 7 6 7 5 7 5 4 6 9 10 10 10 9 10 9 7 9 10 6
2 2 5 4 2 3 2 4 5 12 10 7 3 3 4 4 3 3 3 4 5 6 8 9 10 11 11 9 8 8 6 4 3 3 3 5 6 8 8 9 10 10 10 9 9 10 10 11 10
3 4 3 4 4 2 2 4 1 8 7 4 3 5 4 4 2 1 1 3 5 7 8 9 10 9 10 9 7 4 3 1 2 4 6 7 8 8 9 10 10 10 11 11 12 11 10 11 10
Wind_Direction
137 81 87 51 167 61 214 243 282 243 230 203 281 202 220 282 192 206 8 172 151 155 162 154 153 153 154 155 147 140 130 131 132 131 131 131 132 137 133 140 146 149 148 144 141 122 110 99 101
125 120 58 98 163 200 224 230 230 228 254 314 253 220 226 239 154 76 122 196 161 152 149 153 147 148 150 150 141 137 137 135 144 142 130 139 133 135 137 138 153 149 151 142 144 121 107 103 109
111 19 134 159 177 217 218 214 241 249 285 293 325 252 292 310 87 173 278 157 151 150 149 150 151 154 152 143 147 145 144 145 145 139 138 128 138 141 123 96 157 141 134 112 126 112 104 109 112
149 73 68 194 205 234 203 215 182 151 156 155 333 309 306 5 319 174 142 153 151 148 150 149 154 154 143 145 153 149 149 150 149 140 133 144 140 142 137 97 95 107 114 115 108 103 105 111 112
47 107 169 200 226 217 220 208 173 160 308 270 353 296 283 47 64 136 146 151 152 147 150 154 147 142 143 152 152 153 155 156 154 148 145 150 148 146 141 103 110 110 113 115 111 110 110 115 113
117 138 184 211 226 217 205 208 224 232 189 290 284 261 260 21 119 153 153 153 152 153 154 157 146 147 149 153 157 161 166 162 157 155 154 159 153 154 158 117 119 117 118 116 118 118 116 118 114
177 169 204 199 225 227 209 169 213 209 212 254 226 252 225 198 149 160 157 157 149 162 159 159 162 160 157 159 161 160 176 164 160 159 147 158 151 159 159 150 146 143 136 131 128 121 122 121 116
135 172 176 207 206 236 186 171 189 201 247 171 189 227 241 162 150 149 154 156 151 164 167 168 167 167 168 168 153 150 148 160 160 155 138 142 142 151 164 155 167 163 151 142 136 131 127 118 111
139 186 211 208 182 207 147 177 190 132 155 204 193 222 308 158 138 145 150 153 165 169 173 174 173 175 170 165 160 158 164 160 158 150 138 140 159 163 162 155 165 152 146 147 143 132 115 103 89
179 213 213 206 180 196 168 172 172 152 155 217 223 130 79 161 166 172 178 175 177 182 184 179 182 180 169 166 171 167 172 180 177 148 157 155 157 161 158 159 150 137 136 136 142 126 117 126 114
183 230 187 218 199 145 154 152 184 149 181 211 194 286 155 179 186 181 187 194 187 185 184 186 190 184 177 179 170 173 175 170 165 159 163 157 156 162 163 159 160 155 141 146 133 128 131 125 123
183 215 231 216 197 125 150 125 139 197 198 141 124 167 165 192 192 189 195 198 194 196 195 191 192 192 189 178 181 177 180 177 178 176 167 162 161 169 169 171 166 167 164 156 151 147 134 143 129
217 217 220 240 266 159 128 199 220 243 257 181 284 258 155 184 198 206 207 211 202 205 204 205 196 194 193 187 186 185 190 188 186 178 178 172 174 178 176 180 176 171 169 171 162 155 150 152 146
187 212 249 226 240 222 189 228 154 257 234 258 218 249 252 198 188 192 199 208 213 208 209 204 201 196 195 195 193 196 194 192 186 186 187 186 182 182 185 185 183 182 183 176 172 169 159 152 151
170 179 220 234 209 236 140 252 228 218 189 222 232 243 256 236 206 217 205 210 208 211 209 213 202 194 202 201 198 195 198 196 193 195 192 192 190 190 187 188 188 191 184 174 164 154 151 149 142
194 169 182 220 200 229 148 232 246 215 204 226 234 249 244 258 243 239 232 227 212 206 208 207 200 197 205 208 195 204 198 201 202 201 195 198 198 195 192 192 196 192 183 182 177 169 163 163 167
190 206 187 271 203 189 197 235 209 132 177 234 241 245 249 256 246 258 250 246 228 220 218 207 203 206 207 205 202 206 205 206 206 203 205 202 203 200 199 199 199 187 187 188 178 170 175 175 172
186 197 188 202 190 196 202 230 284 245 194 240 254 253 239 243 254 247 212 227 243 232 221 218 207 209 205 196 199 198 203 214 209 211 209 205 205 204 202 203 200 186 186 188 180 172 163 176 163
155 164 148 202 184 149 222 231 236 263 267 240 252 258 246 229 244 259 248 221 230 241 228 219 210 210 192 190 202 204 210 215 210 208 208 204 205 202 205 207 203 193 193 191 186 165 174 153 162
166 177 176 101 132 158 127 250 240 229 234 221 230 244 253 255 253 259 256 246 236 235 224 232 215 213 204 204 207 203 210 215 219 208 210 206 205 204 202 203 204 197 189 189 183 169 152 145 181
191 182 169 148 143 74 257 270 250 248 292 338 334 279 279 273 272 260 263 238 228 241 239 227 221 212 206 206 207 203 155 145 182 210 211 206 201 200 202 202 198 193 187 188 185 183 177 155 189
158 163 128 139 135 179 308 274 301 87 57 43 24 41 33 21 17 327 293 310 281 258 265 254 240 224 209 205 207 213 215 214 214 224 226 213 206 202 204 199 197 190 187 186 186 182 184 149 164
107 96 104 102 95 109 352 122 263 162 55 21 9 16 29 31 48 55 56 52 39 23 4 268 254 246 240 215 209 212 219 224 224 220 234 216 209 212 212 203 193 188 186 188 177 178 186 189 168
116 76 53 43 68 69 241 188 284 132 124 119 21 40 29 26 37 41 32 35 37 27 40 42 33 15 305 239 229 221 220 222 218 208 217 210 207 212 212 205 198 197 187 184 185 185 189 188 173
154 97 90 94 104 207 18 121 250 266 288 160 132 58 20 27 52 47 34 30 32 27 21 26 20 15 6 4 253 240 236 230 223 222 218 198 198 208 208 197 201 198 197 190 182 182 185 184 178
184 171 158 154 174 174 44 221 243 314 179 155 121 31 47 46 30 29 22 22 23 16 9 4 9 353 344 332 317 282 253 242 229 222 208 211 208 213 212 202 200 202 191 181 174 171 173 158 146
197 76 145 103 28 102 212 272 336 1 82 66 40 51 26 15 12 13 10 13 9 7 2 355 349 345 327 310 300 284 262 243 240 233 220 215 201 181 180 184 186 184 181 174 163 161 154 139 130
143 134 77 20 120 241 258 262 175 189 182 227 70 37 345 342 356 5 10 7 1 358 350 351 347 331 320 306 287 276 270 260 249 230 222 205 159 158 165 169 167 164 162 156 149 139 130 119 112
101 64 56 105 83 165 154 261 200 182 182 168 84 319 306 298 319 332 354 4 356 357 355 350 347 337 328 318 300 284 279 267 214 170 152 146 138 146 149 154 151 145 138 137 125 121 121 118 115
83 144 131 124 222 59 116 276 347 197 174 186 276 280 278 262 264 186 32 0 0 2 354 359 349 343 334 323 319 331 330 337 117 129 133 140 137 142 141 139 135 128 121 120 118 111 110 108 99